Temp
1 1 1 0 0 0 0 1 1 1 0 0 -0 -1 -1 -1 -1 -2 -2 -3 -4 -5 -4 -5 -5 -5 -5 -5 -6 -6 -5 -5 -5 -5 -5 -5 -4 -3 -2 -1 -1 2 2 2 4 4 2 2 5 6 4 4 6 7
1 1 1 0 0 1 1 1 1 1 1 0 -0 -0 -1 -0 -1 -1 -2 -3 -4 -4 -4 -4 -5 -5 -5 -5 -6 -6 -6 -6 -6 -6 -6 -5 -5 -4 -2 -2 -1 -0 -1 -1 0 0 -1 0 2 2 4 4 4 5
1 1 0 0 1 1 2 2 1 1 1 0 0 -0 -0 0 -1 -1 -2 -2 -4 -4 -4 -5 -4 -5 -5 -6 -6 -6 -6 -6 -6 -6 -6 -5 -5 -4 -4 -4 -2 -3 -1 -1 0 0 -1 -1 -1 1 2 3 3 4
1 1 1 1 1 2 2 1 1 1 1 1 1 0 0 0 -1 -1 -2 -3 -4 -3 -4 -4 -5 -5 -5 -5 -5 -6 -6 -6 -7 -6 -6 -6 -6 -5 -4 -3 -2 -1 -2 -1 -1 -0 -0 1 -1 -1 2 2 3 3
1 1 1 1 2 2 1 1 2 1 1 1 1 1 0 -0 -0 -1 -0 -2 -2 -2 -3 -4 -4 -4 -4 -5 -5 -5 -5 -5 -4 -4 -5 -5 -5 -4 -3 -2 -2 -2 -3 -3 -2 -1 -2 0 2 2 2 2 2 3
1 1 2 2 2 1 1 1 2 2 1 1 1 1 0 0 0 1 0 -1 -1 -2 -3 -3 -3 -3 -3 -4 -4 -4 -5 -5 -5 -5 -5 -4 -4 -5 -4 -3 -3 -3 -2 -2 1 1 1 1 1 1 1 2 1 2
1 2 2 2 1 1 2 2 2 2 2 2 1 1 1 1 0 -0 -1 -1 -0 -0 -1 -2 -3 -3 -3 -2 -3 -4 -4 -4 -4 -4 -5 -5 -5 -5 -5 -5 -3 -1 -2 -1 -0 0 3 2 2 2 1 1 2 3
2 2 2 2 2 2 2 2 3 2 2 2 1 1 1 1 1 0 -0 -0 0 -0 -1 -2 -2 -2 -2 -2 -3 -3 -3 -4 -4 -4 -5 -5 -5 -6 -5 -4 -4 -3 -0 1 1 0 2 3 2 2 1 1 2 3
2 3 2 2 2 2 2 2 2 2 2 2 2 1 1 2 2 1 1 1 1 -0 -1 -1 -1 -1 -2 -2 -2 -3 -2 -3 -4 -4 -4 -5 -5 -5 -5 -4 -4 -3 -3 -3 -2 -1 1 1 2 2 2 1 1 1
3 3 3 2 2 2 2 2 2 2 2 1 2 2 2 2 2 2 2 2 1 0 -0 -1 -0 -1 -0 -0 -1 -1 -2 -2 -3 -4 -4 -4 -4 -5 -4 -4 -4 -3 -3 -4 -3 -2 -2 -0 1 1 1 0 0 1
2 3 2 2 2 3 2 2 2 2 2 2 2 1 1 1 2 1 1 1 0 -0 -0 -1 -1 -0 -0 -0 -1 -1 -2 -2 -3 -3 -4 -4 -4 -4 -5 -5 -4 -3 -3 -2 -3 -3 -1 1 1 0 0 -0 -0 0
2 3 2 2 2 2 2 2 2 2 2 1 1 1 1 0 0 0 0 0 -0 -0 -1 -1 -1 0 -0 -0 -1 -1 -1 -2 -2 -3 -4 -4 -4 -4 -5 -5 -5 -4 -4 -3 -3 -2 -2 -1 -1 -1 -2 -1 -1 -0
2 2 2 2 2 2 2 2 2 1 1 1 0 0 0 0 1 1 0 0 0 0 -0 0 0 0 -0 -0 -1 -1 -1 -2 -2 -3 -4 -5 -5 -5 -5 -5 -5 -5 -4 -3 -3 -3 -2 -2 -2 -2 -2 -2 -1 -1
2 2 2 2 2 2 2 2 2 1 0 -0 -0 0 0 1 1 1 1 0 0 0 0 -0 0 -0 -1 -0 -1 -1 -2 -2 -3 -4 -5 -5 -5 -5 -5 -5 -5 -5 -4 -4 -4 -3 -3 -4 -4 -3 -2 -3 -2 -1
2 2 2 2 2 2 2 2 2 1 -0 0 0 1 0 1 1 0 -0 -0 -0 0 0 0 1 0 -0 -1 -2 -2 -3 -3 -4 -4 -5 -5 -5 -5 -6 -6 -6 -6 -5 -5 -5 -5 -4 -4 -4 -4 -4 -3 -3 -3
2 2 2 2 2 2 2 2 2 1 0 1 1 0 0 -0 -0 -0 -1 -1 -0 0 1 0 -0 -1 -2 -2 -3 -3 -4 -4 -4 -4 -4 -5 -5 -5 -6 -6 -6 -6 -6 -6 -5 -5 -5 -5 -5 -5 -4 -4 -4 -3
2 2 2 2 2 2 2 2 1 1 1 1 1 1 0 -0 -1 -1 -1 -1 -1 -1 -0 -0 -2 -2 -2 -3 -4 -4 -4 -4 -4 -5 -4 -5 -5 -5 -6 -6 -6 -7 -6 -6 -6 -6 -6 -6 -5 -5 -3 -2 -4 -4
3 2 2 2 2 3 3 2 0 1 1 1 1 1 -0 0 0 -1 -1 -1 -1 -1 -1 -1 -2 -3 -3 -3 -4 -4 -4 -4 -4 -5 -5 -5 -6 -6 -6 -6 -7 -7 -7 -6 -7 -6 -7 -6 -6 -7 -6 -5 -4 -3
3 2 2 2 2 2 2 1 1 1 1 1 1 0 1 0 -0 -1 -1 -1 -1 -1 -1 -1 -2 -3 -3 -4 -4 -4 -4 -4 -4 -5 -6 -6 -6 -6 -7 -6 -6 -7 -7 -7 -7 -7 -7 -7 -7 -7 -7 -7 -7 -7
3 3 3 2 2 2 1 1 1 1 1 1 1 1 1 -1 -0 -0 -0 -1 -1 -1 -2 -2 -3 -3 -3 -3 -4 -3 -4 -4 -4 -5 -6 -6 -6 -6 -7 -7 -7 -7 -7 -7 -7 -7 -7 -7 -8 -8 -8 -8 -8 -8
2 3 3 3 2 2 2 1 1 1 1 1 1 0 1 1 -0 0 0 -1 -1 -1 -1 -2 -3 -2 -2 -3 -3 -3 -4 -4 -4 -6 -6 -6 -7 -6 -7 -7 -7 -7 -7 -7 -8 -8 -7 -8 -8 -8 -8 -9 -9 -8
3 2 2 2 2 0 1 1 1 1 1 1 1 1 1 0 0 0 0 -1 -1 -1 -1 -1 -2 -3 -3 -4 -4 -4 -5 -5 -6 -6 -7 -7 -7 -6 -7 -7 -7 -8 -7 -8 -8 -8 -9 -8 -8 -9 -9 -9 -9 -9
2 2 2 2 1 1 2 1 1 1 1 1 1 1 1 1 1 0 0 -1 -1 -1 -1 -2 -2 -3 -4 -5 -5 -5 -5 -6 -6 -6 -7 -7 -7 -7 -7 -7 -8 -8 -8 -8 -8 -9 -9 -9 -9 -9 -9 -9 -9 -10
2 2 2 1 1 1 1 2 2 2 2 1 1 1 1 1 1 0 -0 -1 -2 -1 -1 -2 -3 -3 -4 -5 -5 -6 -5 -6 -5 -6 -7 -8 -8 -8 -8 -8 -8 -8 -9 -9 -8 -9 -9 -9 -10 -10 -9 -9 -10 -10
2 2 2 2 2 2 2 2 3 0 1 2 1 2 2 1 0 -1 -1 -1 -1 -1 -2 -2 -2 -3 -3 -5 -6 -6 -6 -6 -6 -7 -7 -8 -8 -8 -8 -9 -9 -9 -9 -9 -9 -10 -9 -9 -10 -10 -10 -10 -10 -10
2 2 2 2 2 2 3 3 2 1 2 2 2 2 1 1 -0 -1 -2 -2 -2 -2 -2 -3 -3 -4 -4 -5 -5 -5 -6 -6 -6 -8 -8 -8 -9 -8 -8 -9 -10 -9 -9 -10 -10 -10 -10 -10 -10 -10 -10 -10 -11 -11
2 2 2 2 2 2 1 2 2 2 2 2 2 1 -0 0 0 -0 -1 -2 -3 -3 -3 -4 -4 -4 -4 -6 -6 -6 -7 -8 -8 -8 -9 -9 -10 -10 -10 -10 -10 -10 -10 -10 -11 -10 -10 -10 -11 -11 -10 -11 -11 -11
2 3 2 3 3 2 1 1 2 2 3 1 1 1 1 0 -1 -1 -1 -2 -3 -3 -3 -4 -4 -4 -6 -6 -6 -6 -7 -8 -8 -8 -9 -9 -9 -10 -10 -11 -10 -10 -10 -11 -11 -11 -11 -11 -11 -11 -11 -11 -12 -12
3 3 3 3 3 2 1 2 3 3 3 2 2 1 1 1 1 0 -1 -1 -2 -3 -4 -4 -5 -5 -6 -6 -6 -7 -7 -7 -8 -8 -9 -9 -9 -10 -10 -10 -10 -11 -11 -11 -11 -11 -11 -11 -11 -11 -11 -12 -12 -12
3 3 3 4 3 2 3 3 3 3 3 2 1 0 0 0 -0 -1 -1 -3 -3 -3 -4 -4 -5 -5 -6 -6 -6 -6 -7 -8 -8 -8 -9 -10 -10 -10 -11 -10 -11 -11 -12 -12 -12 -12 -12 -12 -12 -12 -12 -12 -12 -12
4 4 3 4 4 4 4 4 3 3 3 3 2 2 1 -1 -1 -1 -2 -2 -4 -4 -4 -5 -5 -5 -6 -6 -6 -6 -8 -8 -8 -9 -10 -10 -10 -11 -11 -12 -12 -12 -12 -12 -12 -12 -12 -12 -12 -12 -12 -12 -12 -12
4 4 4 4 4 4 4 3 3 3 3 3 2 1 1 -0 -1 -2 -2 -2 -2 -3 -4 -4 -4 -5 -6 -6 -7 -7 -8 -9 -9 -10 -10 -11 -11 -11 -11 -12 -12 -12 -12 -12 -12 -12 -12 -12 -12 -12 -12 -12 -13 -13
4 4 4 4 4 4 4 4 4 3 3 2 2 -0 1 -1 -1 -1 -2 -3 -3 -3 -5 -5 -6 -6 -6 -8 -8 -8 -8 -9 -10 -10 -11 -11 -11 -11 -11 -12 -12 -12 -13 -13 -12 -12 -13 -12 -12 -13 -13 -13 -13 -13
Height
3131 3129 3126 3123 3118 3113 3107 3103 3098 3093 3087 3082 3077 3072 3066 3062 3056 3051 3048 3043 3040 3035 3033 3030 3028 3025 3024 3024 3022 3020 3020 3018 3015 3013 3012 3009 3010 3010 3011 3010 3006 3010 3012 3014 3016 3017 3019 3018 3015 3012 3029 3032 3031 3030
3129 3127 3123 3119 3114 3109 3104 3100 3095 3090 3085 3079 3074 3069 3064 3059 3055 3051 3046 3042 3038 3035 3033 3030 3026 3025 3023 3022 3021 3020 3020 3021 3020 3019 3017 3014 3013 3012 3011 3008 3010 3015 3017 3019 3023 3027 3023 3021 3023 3029 3027 3025 3028 3030
3127 3124 3121 3116 3111 3106 3102 3097 3093 3087 3082 3076 3071 3066 3062 3059 3054 3051 3046 3041 3037 3034 3032 3030 3027 3025 3023 3022 3023 3021 3021 3021 3022 3023 3023 3020 3018 3018 3018 3016 3015 3017 3014 3017 3020 3021 3020 3019 3020 3019 3025 3027 3029 3029
3125 3122 3118 3114 3108 3104 3100 3096 3091 3085 3079 3074 3069 3065 3061 3059 3055 3052 3047 3041 3038 3035 3033 3032 3028 3027 3025 3024 3024 3023 3022 3020 3020 3020 3020 3020 3018 3017 3018 3018 3018 3019 3017 3015 3014 3017 3015 3016 3017 3021 3023 3025 3027 3029
3123 3121 3117 3112 3107 3103 3099 3094 3089 3083 3078 3073 3069 3066 3062 3059 3056 3053 3050 3045 3042 3042 3037 3034 3032 3028 3025 3025 3024 3023 3022 3021 3021 3019 3019 3020 3020 3020 3018 3016 3016 3018 3016 3012 3005 3009 3008 3012 3015 3016 3018 3019 3023 3023
3122 3119 3115 3111 3107 3102 3098 3094 3089 3084 3078 3074 3070 3068 3066 3063 3060 3056 3053 3050 3047 3044 3040 3039 3038 3036 3033 3028 3026 3024 3024 3024 3023 3022 3021 3020 3020 3019 3016 3013 3013 3006 3004 3005 2998 3002 3000 3003 3008 3013 3015 3017 3019 3018
3121 3118 3114 3111 3107 3103 3098 3094 3089 3085 3079 3075 3073 3071 3069 3066 3065 3060 3060 3058 3052 3049 3044 3044 3044 3044 3041 3038 3035 3032 3030 3028 3027 3026 3026 3025 3023 3021 3019 3014 3000 2995 2994 2996 2997 2995 2992 2998 2997 3004 3007 3010 3012 3012
3120 3117 3114 3111 3107 3103 3098 3093 3088 3085 3080 3077 3075 3074 3072 3069 3069 3066 3064 3061 3058 3055 3051 3052 3052 3049 3046 3046 3042 3040 3037 3035 3032 3031 3028 3025 3022 3020 3020 3016 3004 2994 2986 2984 2980 2978 2979 2988 2991 2995 3003 3005 3006 3009
3120 3117 3114 3111 3108 3104 3099 3092 3088 3085 3081 3079 3077 3076 3074 3072 3070 3069 3067 3065 3062 3061 3056 3057 3055 3053 3051 3049 3045 3043 3040 3037 3035 3033 3028 3026 3025 3023 3019 3011 2999 2989 2983 2975 2961 2954 2957 2968 2980 2987 2995 2999 3001 3003
3120 3117 3115 3112 3108 3104 3099 3094 3089 3085 3083 3081 3079 3078 3074 3073 3071 3070 3068 3066 3063 3063 3061 3058 3056 3054 3053 3049 3046 3044 3040 3039 3037 3037 3032 3029 3027 3028 3020 3011 2997 2987 2980 2972 2962 2954 2955 2964 2976 2985 2989 2993 2995 2996
3120 3117 3115 3112 3108 3104 3099 3095 3091 3086 3084 3082 3080 3078 3078 3075 3073 3071 3070 3068 3067 3065 3062 3059 3054 3053 3052 3049 3047 3045 3043 3041 3040 3041 3036 3033 3030 3026 3020 3012 3002 2991 2982 2976 2970 2966 2966 2969 2974 2979 2983 2986 2987 2991
3119 3116 3114 3111 3108 3104 3100 3095 3091 3087 3085 3083 3081 3081 3079 3076 3076 3077 3075 3074 3071 3068 3065 3060 3057 3055 3052 3049 3047 3046 3045 3045 3045 3044 3040 3036 3035 3030 3023 3016 3008 2999 2990 2982 2977 2974 2973 2973 2974 2977 2979 2979 2981 2983
3119 3116 3113 3110 3107 3104 3100 3096 3092 3088 3087 3086 3082 3082 3083 3084 3083 3080 3077 3077 3074 3070 3067 3064 3060 3056 3052 3050 3049 3048 3050 3049 3048 3046 3044 3042 3039 3033 3027 3021 3014 3007 3000 2993 2987 2983 2978 2976 2974 2975 2976 2977 2977 2978
3118 3116 3113 3110 3107 3104 3101 3097 3093 3089 3088 3087 3088 3089 3089 3088 3087 3085 3081 3078 3074 3069 3067 3063 3060 3058 3055 3053 3052 3051 3052 3051 3050 3049 3047 3044 3039 3034 3029 3024 3018 3012 3007 3001 2997 2993 2989 2985 2980 2975 2976 2977 2976 2976
3118 3115 3112 3109 3107 3104 3101 3097 3095 3092 3091 3091 3093 3093 3092 3091 3088 3084 3080 3076 3071 3068 3065 3060 3061 3059 3057 3055 3055 3055 3054 3054 3053 3052 3048 3045 3041 3035 3030 3026 3022 3017 3013 3008 3004 3000 2995 2993 2990 2987 2984 2978 2976 2976
3117 3115 3112 3110 3107 3104 3101 3098 3096 3094 3094 3095 3095 3094 3092 3089 3086 3083 3078 3074 3071 3067 3065 3062 3060 3059 3059 3059 3058 3058 3057 3056 3054 3052 3049 3045 3041 3036 3032 3028 3024 3021 3017 3013 3008 3006 3002 2998 2994 2991 2989 2987 2984 2980
3115 3114 3111 3109 3106 3104 3101 3099 3097 3097 3096 3097 3097 3094 3091 3088 3086 3082 3079 3074 3071 3068 3064 3064 3062 3062 3063 3062 3062 3061 3060 3057 3054 3053 3048 3045 3041 3036 3032 3030 3026 3023 3020 3017 3014 3009 3007 3002 2999 2997 2994 2992 2991 2988
3113 3112 3110 3108 3106 3103 3101 3099 3099 3099 3099 3098 3098 3095 3090 3088 3086 3082 3079 3075 3072 3070 3068 3065 3066 3064 3065 3065 3064 3063 3058 3055 3054 3051 3048 3044 3040 3037 3034 3031 3027 3025 3023 3021 3017 3015 3013 3008 3004 3000 2997 2995 2993 2991
3111 3110 3109 3107 3105 3103 3101 3101 3099 3099 3099 3097 3095 3093 3091 3088 3085 3083 3080 3077 3075 3072 3071 3070 3070 3068 3066 3064 3061 3058 3055 3052 3050 3048 3047 3043 3040 3039 3035 3031 3029 3026 3024 3022 3020 3015 3012 3010 3009 3005 3002 3000 2996 2993
3109 3108 3107 3106 3104 3103 3102 3102 3101 3099 3098 3095 3093 3091 3090 3088 3085 3084 3081 3078 3076 3073 3071 3070 3069 3067 3064 3061 3059 3055 3053 3050 3047 3045 3044 3041 3039 3037 3035 3032 3029 3027 3025 3022 3019 3018 3015 3012 3010 3007 3004 3002 3000 2998
3107 3106 3105 3105 3103 3102 3101 3099 3099 3098 3095 3093 3091 3089 3090 3089 3087 3083 3082 3078 3075 3073 3071 3069 3067 3063 3061 3058 3055 3053 3051 3048 3045 3043 3041 3039 3037 3035 3034 3032 3028 3026 3025 3023 3019 3014 3015 3014 3011 3009 3007 3004 3002 3000
3106 3105 3104 3103 3102 3101 3100 3100 3099 3098 3096 3094 3091 3090 3087 3086 3084 3082 3080 3077 3074 3071 3070 3067 3063 3060 3056 3054 3052 3048 3047 3045 3042 3041 3040 3038 3034 3033 3031 3030 3028 3025 3023 3022 3021 3016 3013 3013 3011 3009 3008 3006 3004 3003
3106 3105 3103 3102 3102 3101 3102 3099 3097 3096 3095 3094 3092 3090 3088 3084 3080 3078 3076 3076 3072 3069 3068 3066 3062 3057 3054 3051 3049 3046 3045 3042 3041 3039 3036 3034 3031 3029 3028 3028 3025 3022 3021 3020 3018 3016 3013 3012 3010 3008 3008 3008 3005 3004
3105 3104 3103 3102 3102 3100 3098 3097 3096 3095 3094 3092 3091 3088 3086 3082 3079 3076 3075 3071 3073 3070 3069 3065 3061 3057 3052 3049 3048 3045 3043 3041 3038 3035 3031 3029 3027 3026 3026 3023 3019 3018 3018 3018 3017 3015 3014 3011 3010 3006 3006 3007 3003 3001
3107 3106 3104 3102 3101 3099 3097 3096 3097 3088 3091 3087 3085 3085 3081 3078 3074 3070 3072 3072 3071 3069 3066 3063 3059 3054 3050 3048 3046 3041 3038 3035 3034 3030 3027 3025 3023 3022 3022 3019 3016 3014 3014 3014 3014 3013 3011 3009 3009 3006 3005 3004 3002 3000
3105 3105 3104 3102 3102 3101 3101 3098 3094 3091 3090 3086 3083 3083 3080 3077 3074 3067 3066 3069 3070 3067 3065 3060 3055 3052 3049 3046 3042 3040 3038 3033 3029 3026 3023 3022 3020 3019 3018 3017 3012 3011 3012 3011 3010 3009 3008 3007 3006 3003 3003 3002 3001 3000
3104 3102 3101 3101 3100 3101 3095 3097 3094 3089 3087 3085 3082 3080 3077 3075 3073 3070 3070 3070 3067 3065 3061 3055 3053 3050 3047 3044 3041 3038 3034 3030 3028 3026 3023 3021 3018 3015 3014 3012 3011 3010 3007 3006 3006 3005 3004 3004 3003 3002 3000 3001 2999 2998
3103 3102 3101 3100 3098 3096 3093 3092 3089 3086 3084 3082 3081 3079 3077 3074 3072 3067 3065 3064 3060 3058 3056 3054 3051 3048 3044 3041 3039 3036 3032 3030 3028 3026 3023 3019 3016 3015 3013 3010 3008 3006 3006 3004 3003 3002 3001 3000 3000 2999 2999 2998 2997 2996
3101 3101 3098 3097 3096 3095 3090 3089 3086 3083 3082 3080 3080 3075 3075 3072 3071 3069 3066 3064 3060 3057 3054 3051 3048 3046 3045 3041 3038 3035 3032 3030 3026 3024 3022 3020 3016 3012 3010 3008 3007 3003 3001 3001 3000 2999 2998 2997 2996 2996 2996 2995 2994 2994
3100 3099 3099 3096 3093 3090 3091 3090 3087 3085 3083 3082 3067 3060 3074 3074 3072 3070 3065 3061 3057 3055 3052 3051 3047 3045 3042 3039 3036 3033 3027 3024 3023 3022 3019 3015 3013 3010 3007 3006 3004 3002 3000 2998 2997 2997 2995 2995 2995 2994 2995 2994 2994 2993
3099 3098 3096 3095 3093 3092 3092 3090 3087 3087 3081 3078 3073 3072 3071 3069 3070 3068 3064 3061 3058 3054 3052 3049 3045 3041 3038 3035 3032 3030 3025 3019 3017 3018 3016 3012 3009 3007 3006 3003 3000 2999 2998 2997 2996 2995 2994 2994 2994 2994 2993 2993 2992 2992
3098 3097 3096 3094 3093 3091 3090 3088 3087 3085 3082 3078 3074 3072 3069 3065 3065 3065 3063 3060 3057 3054 3050 3046 3042 3040 3037 3033 3028 3024 3022 3019 3016 3014 3011 3008 3005 3002 3000 2997 2996 2995 2995 2993 2992 2993 2993 2992 2992 2992 2992 2991 2990 2989
3095 3094 3094 3093 3092 3089 3089 3087 3084 3083 3079 3075 3073 3070 3071 3068 3066 3065 3059 3054 3052 3049 3045 3041 3037 3033 3031 3028 3025 3022 3020 3018 3015 3012 3008 3003 2999 2997 2995 2994 2992 2991 2991 2991 2990 2990 2990 2990 2990 2990 2990 2989 2989 2988
Wind_Speed
16 19 21 23 27 29 30 28 27 25 24 24 25 26 27 28 28 27 25 17 17 22 18 22 24 19 17 9 14 15 17 12 15 18 11 12 11 12 11 12 19 8 8 6 3 5 5 15 15 23 14 13 20 26
16 20 22 25 28 30 29 26 25 22 23 25 27 28 27 23 22 21 21 17 15 18 20 15 12 11 12 1 7 9 14 11 10 12 16 10 15 11 20 11 9 9 10 11 6 8 10 7 22 18 6 3 14 20
17 19 22 27 29 29 26 24 21 22 26 27 27 25 22 18 19 19 22 21 17 16 14 13 14 13 11 6 3 7 8 9 6 8 10 10 9 13 12 9 13 13 13 9 9 13 4 9 5 4 10 6 2 8
18 20 25 27 27 25 24 22 24 27 27 24 22 22 17 15 14 17 20 19 18 14 17 14 10 14 13 1 1 7 8 10 11 11 9 8 11 10 14 16 18 15 14 19 17 8 8 7 11 9 9 9 12 9
17 22 25 26 25 23 23 24 26 27 24 19 18 19 17 14 15 13 17 21 16 21 25 28 26 22 13 8 10 6 5 7 10 13 14 15 16 19 16 17 15 5 12 20 27 20 24 16 16 18 17 14 12 16
19 22 23 22 22 22 22 22 26 26 23 18 17 15 16 21 19 21 21 24 21 21 33 34 42 42 42 33 23 13 8 14 14 17 16 17 16 18 15 18 26 23 27 31 38 36 35 29 27 24 19 21 14 16
19 21 19 20 20 21 23 23 22 26 23 16 16 11 13 20 24 25 20 23 27 27 26 18 24 25 28 31 38 37 33 27 19 12 11 10 8 6 11 30 33 27 14 20 30 40 49 42 40 35 31 29 32 30
18 18 17 17 18 21 23 23 22 20 20 14 14 9 9 12 14 19 26 19 24 27 25 16 18 29 28 20 25 29 34 36 35 24 26 21 12 6 14 33 27 31 17 21 33 40 52 53 53 46 38 36 38 40
17 15 16 16 17 19 27 26 18 17 19 16 9 4 7 7 10 14 14 16 18 22 18 24 25 15 18 22 13 7 17 19 25 26 28 26 39 27 34 37 28 18 18 25 23 26 46 52 51 51 47 43 43 43
15 14 15 15 16 18 25 28 20 16 18 12 8 5 10 8 8 4 7 9 8 12 21 29 26 26 15 13 11 8 9 11 13 25 18 32 26 38 41 37 31 20 24 17 21 12 8 30 37 36 40 43 45 49
15 14 14 16 16 19 23 25 22 14 15 8 12 15 8 9 12 10 14 10 12 9 21 20 28 18 13 12 10 8 6 6 9 20 15 25 38 37 41 42 46 26 16 22 17 8 4 16 29 35 35 36 36 42
15 14 14 15 16 18 24 22 20 14 12 16 9 3 12 13 12 9 12 13 11 13 22 29 28 20 12 14 7 7 8 8 6 15 11 16 34 34 36 38 42 44 33 18 11 11 7 3 10 17 23 31 34 36
14 13 14 14 16 20 23 19 18 14 10 11 17 13 8 9 13 13 16 19 18 23 24 25 25 16 12 14 7 6 4 5 6 10 11 29 31 31 30 31 32 37 37 37 35 20 7 5 7 9 8 9 13 16
12 12 14 14 16 19 19 17 15 10 10 12 10 13 9 9 11 15 16 18 20 12 22 19 15 13 11 7 6 6 5 3 6 7 13 26 31 28 25 24 25 27 30 33 32 32 32 28 21 20 15 18 15 14
10 12 14 14 15 16 18 15 9 13 15 11 6 8 10 9 10 13 15 14 14 13 20 13 8 4 9 5 6 5 5 5 8 13 16 22 30 25 20 21 23 22 23 23 26 29 26 25 27 23 19 20 25 27
9 11 11 13 14 15 16 14 11 10 12 8 7 7 10 9 11 15 16 17 11 16 9 11 11 5 9 5 6 10 5 5 12 18 20 21 23 23 27 26 21 19 17 19 20 21 22 24 24 25 24 20 20 20
9 10 11 12 14 13 12 10 10 13 8 6 6 11 13 13 11 14 16 16 11 12 14 5 8 6 4 5 7 10 13 14 11 17 17 19 21 23 27 29 17 20 19 13 15 17 17 18 21 17 16 15 16 18
10 10 11 11 13 12 7 9 6 5 3 4 6 10 10 16 21 15 17 17 16 12 18 12 10 14 5 5 8 10 10 15 17 7 16 16 18 19 21 28 13 16 18 15 13 13 10 9 13 17 20 18 15 13
9 9 11 10 11 9 8 8 5 2 2 6 8 7 13 7 15 13 16 14 12 11 11 10 5 11 7 5 9 13 17 17 11 6 10 12 14 13 18 24 12 13 13 13 12 11 15 16 14 11 12 12 11 12
8 8 9 8 8 5 4 4 3 3 7 12 8 8 11 9 11 9 13 14 17 10 8 6 5 9 13 14 15 14 13 14 11 3 5 15 12 7 13 17 17 8 6 14 11 1 4 4 12 15 14 15 13 7
6 7 7 6 7 4 2 1 3 7 9 7 5 6 7 5 7 15 17 3 12 20 17 17 17 18 15 13 12 9 12 18 15 9 13 16 16 3 11 10 13 9 7 3 13 12 8 9 1 5 6 13 16 13
6 5 6 7 6 6 3 6 4 5 10 12 9 8 11 6 9 14 11 2 9 13 21 21 21 19 16 16 17 18 21 22 26 11 11 12 16 10 6 10 11 11 8 6 6 13 16 15 1 6 3 7 13 13
7 7 7 4 5 5 4 7 6 5 9 11 11 7 10 13 12 13 7 7 11 13 22 21 25 25 16 11 13 16 18 22 24 18 15 11 15 15 7 3 9 9 5 6 4 6 9 11 7 6 7 9 4 7
6 5 3 2 5 7 5 8 9 11 11 13 14 15 18 20 12 10 6 10 8 15 20 20 28 23 16 9 9 13 17 21 26 26 17 16 20 11 5 8 10 10 2 1 6 9 5 7 4 11 14 8 5 2
7 5 4 4 7 10 10 9 11 14 18 20 11 12 13 16 17 12 5 6 10 14 20 24 29 22 9 3 4 12 17 24 29 14 16 13 10 4 6 7 9 11 12 8 3 3 6 5 2 5 11 5 8 2
7 3 6 4 8 10 12 14 14 18 18 21 6 8 12 18 16 5 7 2 9 17 21 28 19 17 8 5 12 18 21 19 22 20 17 18 16 14 12 7 13 14 14 15 7 7 2 2 3 4 3 1 2 7
5 6 10 9 13 12 16 12 17 17 13 14 7 8 9 9 8 22 21 20 14 21 25 21 21 23 9 8 13 17 14 11 13 14 13 17 7 11 12 14 20 15 10 6 9 11 10 9 8 6 6 7 13 17
6 12 15 13 13 9 16 16 14 16 6 6 10 10 9 8 10 14 20 24 22 25 26 20 18 16 9 14 17 12 9 8 9 8 9 14 11 9 7 9 23 21 13 7 8 8 6 10 14 13 13 13 12 10
8 13 7 2 8 12 14 18 17 15 14 8 12 14 13 18 24 27 22 20 23 22 19 16 14 11 11 12 10 10 11 7 12 9 1 7 8 9 12 18 21 21 17 14 11 10 11 11 4 4 6 3 4 1
10 9 12 10 11 15 17 15 16 16 12 16 12 5 12 11 12 18 20 15 16 19 17 13 16 9 7 9 14 22 23 16 18 21 19 13 12 11 13 20 19 13 14 14 11 6 6 7 5 5 4 4 5 6
7 12 12 13 15 14 13 12 12 11 19 23 23 29 18 11 14 13 21 23 11 15 11 8 13 17 21 25 27 20 14 20 23 19 15 14 19 20 21 23 19 13 15 13 12 9 9 10 6 7 6 8 6 5
7 9 10 11 11 9 12 10 8 13 19 20 22 21 28 13 14 13 22 26 20 18 17 19 21 22 16 18 18 18 18 20 21 23 23 21 21 19 15 12 13 14 11 13 12 7 4 8 3 2 6 9 9 10
9 8 10 12 12 12 12 12 13 15 16 15 17 18 18 13 10 26 31 33 32 30 26 22 22 26 27 27 25 21 23 19 20 21 20 18 17 13 10 7 8 10 10 11 9 5 6 8 5 5 7 6 6 8
Wind_Direction
327 334 334 336 335 335 335 336 340 340 340 340 337 336 337 340 337 336 346 345 322 318 344 344 329 322 313 310 298 314 345 339 0 18 19 355 17 19 358 14 23 189 206 237 270 8 11 26 44 79 94 114 112 114
333 338 338 337 336 335 336 342 343 338 337 337 338 338 344 341 342 348 354 353 340 335 340 350 345 358 338 256 339 338 330 343 347 352 354 342 339 6 353 11 20 60 25 332 353 56 321 150 109 43 48 86 99 112
336 339 339 340 337 338 344 346 341 337 337 338 338 341 345 349 351 357 355 1 3 346 9 9 14 351 339 84 24 352 354 343 333 342 357 344 343 346 2 349 340 349 340 343 340 248 330 265 330 9 10 290 209 138
339 340 343 340 340 345 347 348 347 345 346 345 347 354 359 349 1 12 16 20 21 33 27 31 10 2 8 171 234 292 300 316 301 318 336 352 333 323 327 308 301 306 316 316 296 299 300 245 229 256 276 296 276 258
345 344 342 343 347 349 351 356 1 359 1 4 11 21 26 33 27 34 29 37 54 62 57 49 47 43 38 30 340 321 320 335 360 353 347 347 336 333 330 327 341 331 297 294 279 263 279 243 222 237 254 253 275 259
347 346 346 352 355 357 0 6 9 9 9 13 27 38 48 56 58 60 56 61 73 74 70 61 65 61 57 58 50 41 345 324 328 326 332 354 2 326 337 326 340 303 259 240 250 247 242 231 225 224 241 248 241 247
347 350 355 359 2 3 2 2 3 9 12 21 26 46 81 60 52 55 58 63 72 79 72 61 46 40 47 47 55 57 56 52 50 46 34 7 356 319 299 339 337 334 275 257 257 260 250 240 234 229 232 242 248 252
351 355 0 3 4 3 359 2 4 9 16 25 29 46 79 64 54 54 61 69 69 69 61 45 39 40 47 57 71 66 64 61 57 58 50 38 18 32 348 354 349 321 303 277 263 249 249 241 243 243 236 239 248 251
355 360 359 0 4 14 15 10 9 20 20 14 26 61 76 93 62 50 61 61 56 48 55 34 32 30 29 52 47 55 48 46 39 41 42 41 37 21 12 0 22 354 352 339 327 249 235 229 230 239 245 248 249 251
356 359 359 357 358 358 3 9 12 21 16 20 53 68 63 52 28 33 40 29 10 23 33 28 24 16 17 18 15 27 45 41 33 21 25 30 35 14 21 11 33 16 12 1 12 10 248 214 220 235 242 245 248 250
355 354 352 355 357 1 3 360 6 20 10 12 32 28 7 30 31 26 18 12 5 4 358 344 3 8 19 11 17 30 30 37 33 12 9 23 25 12 9 17 23 31 26 16 20 43 138 208 221 227 235 240 246 251
352 349 346 350 353 359 360 356 3 18 13 25 9 356 37 39 25 21 7 5 353 346 349 335 341 354 6 11 10 21 35 32 26 357 8 14 12 7 5 13 19 29 40 39 26 33 35 338 227 229 237 245 248 248
348 344 345 348 353 356 359 356 359 15 25 37 42 28 30 36 17 356 352 351 340 340 338 341 335 352 2 15 17 27 51 35 331 7 13 5 357 360 5 10 18 24 30 42 47 46 35 341 192 195 208 234 231 232
349 349 348 350 350 353 358 1 7 25 46 45 41 28 27 10 359 349 335 331 325 331 351 332 359 8 5 5 8 1 36 24 19 8 11 0 357 351 355 12 14 25 21 21 35 46 55 67 90 131 176 173 211 209
347 354 357 353 351 351 355 2 16 67 56 48 36 24 5 345 336 337 331 332 339 8 347 6 317 348 20 29 15 360 22 28 352 345 354 357 345 359 357 6 18 21 21 20 21 25 32 47 53 58 72 87 115 141
335 346 349 354 354 352 353 358 29 65 82 61 34 359 347 356 353 352 351 353 28 7 9 332 4 18 29 26 16 24 9 333 352 350 354 348 354 353 9 5 14 22 23 27 19 19 22 21 26 28 35 53 69 76
330 343 345 345 351 348 344 354 38 60 62 46 5 344 350 355 5 357 351 6 18 3 8 354 12 15 22 30 19 7 348 346 352 347 335 323 354 356 358 357 8 18 23 24 42 9 11 17 10 18 35 40 32 42
315 332 343 337 341 344 359 30 50 42 5 360 353 348 347 341 359 2 0 15 28 31 12 57 35 34 46 24 9 348 313 302 305 317 345 349 358 354 347 346 24 24 14 34 15 30 24 359 18 16 357 7 18 31
303 319 332 331 338 355 47 33 80 47 339 317 329 312 327 323 332 3 352 16 17 24 54 35 20 10 13 320 291 291 295 320 345 46 347 338 325 340 342 344 13 33 2 10 34 9 15 19 16 355 341 7 13 355
313 311 320 326 332 355 59 326 42 31 318 312 350 1 338 350 327 349 348 348 10 7 29 29 343 307 297 313 319 320 345 351 340 291 312 327 2 28 337 339 352 19 23 13 4 309 303 22 41 13 6 0 20 20
318 308 312 317 325 284 352 311 267 295 346 321 355 352 324 327 307 306 332 336 321 16 17 12 358 338 334 340 348 0 7 6 7 16 3 342 344 359 345 345 336 353 5 41 356 346 357 332 315 23 337 1 9 14
326 310 311 299 308 292 306 289 306 294 320 347 350 314 323 308 305 311 328 322 282 308 353 358 346 348 352 359 354 357 353 349 0 4 328 330 313 331 350 342 334 327 344 22 350 329 346 0 298 8 84 16 11 23
319 319 319 313 337 313 0 31 19 341 310 315 316 310 331 295 308 322 314 281 283 299 343 356 349 344 340 352 3 338 328 338 331 328 315 306 298 316 310 352 325 305 335 316 335 2 350 359 0 312 340 339 59 21
324 331 337 271 294 310 329 329 321 313 304 315 318 302 306 309 306 326 304 265 284 298 345 344 350 341 333 334 344 314 305 301 314 320 294 291 303 320 61 334 295 298 179 251 317 338 6 343 342 323 343 19 171 171
343 339 331 337 354 349 311 304 313 350 349 306 274 293 297 306 334 279 271 260 288 306 336 332 340 341 342 194 290 306 308 311 323 326 321 334 326 311 188 327 302 272 274 288 263 302 296 301 15 315 329 355 222 271
343 10 4 358 318 313 327 317 309 328 341 340 280 293 291 325 338 340 72 17 325 313 321 325 338 346 325 291 316 319 324 330 349 350 345 351 344 3 14 252 287 295 306 314 251 237 253 271 109 306 331 360 192 271
315 344 326 324 318 321 293 346 348 335 323 323 331 330 326 335 352 10 337 346 338 329 322 334 343 353 358 338 332 335 339 331 331 356 344 336 327 318 340 335 346 336 330 246 246 244 244 246 251 253 277 284 292 304
290 300 299 272 298 335 307 328 332 2 339 327 336 336 332 318 337 337 355 355 350 345 353 339 339 359 14 319 348 348 314 317 316 325 327 314 296 306 318 320 325 321 323 338 331 344 331 274 252 257 269 284 288 305
312 341 354 311 311 313 314 325 329 344 344 313 304 305 295 303 326 342 339 340 347 343 345 356 340 346 1 338 351 352 328 314 294 305 330 299 302 297 294 302 317 315 308 305 333 340 344 352 334 273 264 236 304 260
296 332 328 353 337 310 340 326 345 347 329 312 301 271 324 337 340 357 10 0 346 354 1 333 327 328 302 281 280 291 303 283 278 292 307 292 278 278 290 305 322 324 329 329 322 328 5 6 4 8 337 287 275 254
305 313 310 320 329 333 329 335 322 334 311 316 313 342 334 316 326 352 13 9 356 336 356 313 292 290 296 302 315 327 300 300 318 337 334 310 309 310 309 309 306 298 305 317 324 321 282 301 285 285 330 337 326 316
297 291 306 316 321 325 321 324 313 314 323 314 324 333 360 344 346 347 1 1 356 344 330 314 314 328 338 346 339 332 336 336 332 331 330 323 318 313 308 289 282 296 296 300 307 315 313 319 288 298 308 315 314 319
302 288 302 295 323 331 323 321 319 334 323 307 327 339 344 3 348 358 356 349 349 348 347 346 340 341 345 342 344 344 342 338 328 335 342 333 335 339 335 324 303 297 293 276 297 271 283 307 308 289 299 303 304 308